Weather Roundup
Issued by NWS Corpus Christi, TX

Home | Current Version | Previous Version | Text Only | Print | Product List | Glossary On
Versions: 1 2 3 4 5 6 7 8 9 10 11 12 13 14 15 16 17 18 19 20 21 22 23 24 25 26 27 28 29 30 31 32 33 34 35 36 37 38 39 40 41 42 43 44 45 46 47 48 49 50
000
ASUS44 KCRP 211610
HRRCRP

SOUTH TEXAS REGIONAL WEATHER ROUNDUP
NATIONAL WEATHER SERVICE CORPUS CHRISTI TX
1100 AM CDT MON APR 21 2014


TXZ229>244-211700-
...CORPUS CHRISTI AREA OBSERVATIONS...

CITY           SKY/WX    TMP DP  RH WIND       PRES   REMARKS
CORPUS CHRISTI CLOUDY    76  66  71 SE13      30.07R
NAS CORPUS CHR CLOUDY    74  68  81 S10       30.07S
ROCKPORT       CLOUDY    75  66  73 SE13G18   30.07R
KINGSVILLE NAS CLOUDY    78  68  71 S9        30.06S
ALICE          CLOUDY    76  67  73 S10       30.06S
FALFURRIAS     CLOUDY    75  65  70 S10       30.06S
$$

...VICTORIA AREA OBSERVATIONS...

CITY           SKY/WX    TMP DP  RH WIND       PRES   REMARKS
VICTORIA       CLOUDY    75  66  73 S12       30.07S
BEEVILLE       CLOUDY    75  66  73 S12       30.07S
PLEASANTON     CLOUDY    73  64  73 S8        30.08R
SAN ANTONIO    CLOUDY    72  65  78 S14       30.07S
$$

...LAREDO AREA OBSERVATIONS...

CITY           SKY/WX    TMP DP  RH WIND       PRES   REMARKS
LAREDO         CLOUDY    75  66  73 SE12      30.08S
COTULLA        CLOUDY    73  64  73 VRB6      30.06S
DEL RIO        CLOUDY    72  65  78 S8        30.06S
MCALLEN        CLOUDY    77  68  73 SE14      30.06R
HEBBRONVILLE   CLOUDY    72  66  82 SE7       30.08R
$$

...OTHER TEXAS OBSERVATIONS...

CITY           SKY/WX    TMP DP  RH WIND       PRES   REMARKS
BROWNSVILLE    PTSUNNY   79  67  66 SE15      30.06R
HOUSTON        CLOUDY    75  62  64 S7        30.08S
COL. STATION   CLOUDY    70  64  81 S14       30.08R
AUSTIN         CLOUDY    70  65  84 S12       30.06S
WACO           CLOUDY    70  64  81 S12       30.04R
FORT WORTH     CLOUDY    70  64  81 S12       30.00S
WICHITA FALLS  PTSUNNY   72  63  73 VRB7      29.98R
LUBBOCK        SUNNY     74  49  41 N14       30.09R
EL PASO        MOSUNNY   68  41  37 CALM      30.16R
$$

...MARINE OBSERVATIONS...

STATION/POSITION TIME  SKY/WX   TEMP    WIND        PRES    VSBY  WAVE   SWELL
                                AIR SEA DIR/SP/G                  HT/PER HT/PER
                 (UTC)          (F)     (DEG/KT/KT) (MB)    (MI)  (FT/S) (FT/S)
PORT ARANSAS     1600            69 69  130/  9/ 10 1018.6R
BUOY 90 E PORT A NOT AVBL
BUOY 45 SE BAFFI 1600            70 69   90/  4/  6 1018.3R         2/ 5   2/ 5
BUOY 200 E PT IS NOT AVBL
BUOY 15 E GALVES 1600            68 69  150/ 10/ 12 1018.9F         1/ 4
$$


USA.gov is the U.S. government's official web portal to all federal, state and local government web resources and services.